TimeEDT,TemperatureF,Dew PointF,Humidity,Sea Level PressureIn,VisibilityMPH,Wind Direction,Wind SpeedMPH,Gust SpeedMPH,PrecipitationIn,Events,Conditions,WindDirDegrees,DateUTC
12:52 AM,66.9,64.9,93,30.10,10.0,South,6.9,-,N/A,,Clear,180,2013-06-24 04:52:00
1:52 AM,66.0,64.0,93,30.10,9.0,SSW,5.8,-,N/A,,Clear,200,2013-06-24 05:52:00
2:52 AM,66.0,63.0,90,30.10,10.0,South,5.8,-,N/A,,Clear,190,2013-06-24 06:52:00
3:52 AM,66.0,63.0,90,30.09,10.0,South,5.8,-,N/A,,Clear,190,2013-06-24 07:52:00
4:52 AM,64.0,62.1,93,30.10,10.0,SSW,5.8,-,N/A,,Clear,200,2013-06-24 08:52:00
5:52 AM,66.0,63.0,90,30.10,8.0,SSE,3.5,-,N/A,,Clear,160,2013-06-24 09:52:00
6:52 AM,66.0,64.0,93,30.12,7.0,South,4.6,-,N/A,,Clear,180,2013-06-24 10:52:00
7:52 AM,70.0,64.9,84,30.12,7.0,SSW,3.5,-,N/A,,Clear,200,2013-06-24 11:52:00
8:52 AM,73.9,64.9,73,30.14,9.0,SSW,5.8,-,N/A,,Clear,200,2013-06-24 12:52:00
9:52 AM,79.0,66.9,66,30.14,10.0,South,8.1,-,N/A,,Clear,190,2013-06-24 13:52:00
10:52 AM,81.0,66.9,62,30.12,10.0,South,10.4,-,N/A,,Clear,190,2013-06-24 14:52:00
11:52 AM,82.9,66.0,56,30.13,10.0,WSW,12.7,-,N/A,,Partly Cloudy,240,2013-06-24 15:52:00
12:52 PM,84.0,64.9,53,30.12,10.0,SW,11.5,18.4,N/A,,Clear,220,2013-06-24 16:52:00
1:52 PM,84.9,64.0,49,30.09,10.0,SW,6.9,16.1,N/A,,Scattered Clouds,220,2013-06-24 17:52:00
2:52 PM,79.0,63.0,58,30.08,10.0,West,11.5,17.3,N/A,,Scattered Clouds,260,2013-06-24 18:52:00
3:52 PM,82.0,66.0,58,30.06,10.0,Variable,3.5,-,0.00,,Partly Cloudy,0,2013-06-24 19:52:00
4:52 PM,82.9,66.9,58,30.04,10.0,SSW,9.2,-,N/A,,Clear,200,2013-06-24 20:52:00
5:52 PM,82.0,68.0,62,30.02,10.0,South,9.2,-,N/A,,Mostly Cloudy,180,2013-06-24 21:52:00
6:52 PM,82.9,66.0,56,30.00,10.0,SSW,12.7,-,N/A,,Scattered Clouds,200,2013-06-24 22:52:00
7:52 PM,82.0,64.9,56,30.02,10.0,SW,11.5,-,N/A,,Clear,220,2013-06-24 23:52:00
8:52 PM,78.1,66.0,66,30.01,10.0,SSW,8.1,-,N/A,,Clear,210,2013-06-25 00:52:00
9:52 PM,75.9,66.0,71,30.01,10.0,SSW,6.9,-,N/A,,Clear,210,2013-06-25 01:52:00
10:52 PM,75.9,66.0,71,30.02,10.0,SW,9.2,-,N/A,,Clear,220,2013-06-25 02:52:00
11:52 PM,75.0,64.9,71,30.04,10.0,SSW,9.2,-,N/A,,Clear,210,2013-06-25 03:52:00